Regional Weather Roundup
Issued by NWS

Home | Current Version | Previous Version | Graphics & Text | Print | Product List | Glossary Off
Versions: 1 2 3 4 5 6 7 8 9 10 11 12 13 14 15 16 17 18 19 20 21 22 23 24 25 26 27 28 29 30 31 32 33 34 35 36 37 38 39 40 41 42 43 44 45 46 47 48 49 50

000
ASUS43 KDMX 291707
RWRIA

WEATHER ROUNDUP FOR IOWA
NATIONAL WEATHER SERVICE DES MOINES IA
1200 PM CDT FRI AUG 29 2014

NOTE: "FAIR" INDICATES FEW OR NO CLOUDS BELOW 12,000 FEET WITH NO
SIGNIFICANT WEATHER AND/OR OBSTRUCTIONS TO VISIBILITY.

* - THESE STATIONS ARE NOT NWS STATIONS...THUS NOT UNDER NWS
QUALITY CONTROL.  THEY ALSO DO NOT REPORT WEATHER SUCH
AS PRECIPITATION OR FOG.

IAZ001>003-012>014-020>022-031>034-043>046-291800-
   NORTHWEST IOWA

CITY           SKY/WX    TMP DP  RH WIND       PRES   REMARKS
CARROLL *      MOSUNNY   75  70  83 S9G15     29.83F
CHEROKEE *     CLOUDY   N/A N/A N/A S7        29.82
DENISON *      PTSUNNY   72  70  94 S8        29.82S
LE MARS *      DRIZZLE   72  72 100 SW5       29.82S
ORANGE CITY *  CLOUDY    72  70  94 SW7       29.83R FOG
SHELDON *      CLOUDY    72  70  94 SW9       29.81S
SIOUX CITY     LGT RAIN  74  70  87 W5        29.81F
SPENCER        LGT RAIN  71  68  90 S8        29.82S
STORM LAKE *   MOSUNNY   72  72 100 S9G15     29.84S
$$

IAZ055>058-069>071-079>083-090>094-291800-
   SOUTHWEST IOWA

CITY           SKY/WX    TMP DP  RH WIND       PRES   REMARKS
ATLANTIC *     DRIZZLE   72  68  88 SW12      29.84F
AUDUBON *      LGT RAIN  75  72  88 S8        29.86F
CLARINDA *     MOSUNNY   73  68  83 VRB6      29.86F
COUNCIL BLFS * MOSUNNY   72  72 100 SW8       29.84S
CRESTON *      MOSUNNY   77  72  83 SW10      29.87R
HARLAN  *      SUNNY     72  70  94 SW8       29.88S
RED OAK *      CLOUDY    72  70  94 SW8       29.84F
SHENANDOAH *   MOSUNNY   72  68  88 SW12      29.85S
$$

IAZ047>049-059>061-072>074-084-291800-
   CENTRAL IOWA

CITY           SKY/WX    TMP DP  RH WIND       PRES   REMARKS
AMES           SUNNY     81  72  74 S14       29.82F HX  85
ANKENY *       SUNNY     82  73  74 S10       29.82F HX  88
CHARITON *     SUNNY     81  72  74 S9        29.85F HX  84
DES MOINES     PTSUNNY   84  70  62 S16       29.82F HX  88
GRINNELL*      SUNNY     82  70  65 S13       29.86S HX  86
KNOXVILLE *    SUNNY     82  70  65 S10G17    29.83F HX  86
MARSHALLTOWN   MOSUNNY   83  72  69 S12       29.82F HX  88
PELLA *        SUNNY     84  72  65 S12       29.86S HX  89
PERRY *          N/A     79  72  78 SW7       29.84S HX  82
$$

IAZ004>006-015-016-023>025-035-036-291800-
   NORTH CENTRAL IOWA

CITY           SKY/WX    TMP DP  RH WIND       PRES   REMARKS
ALGONA *       MOSUNNY   75  72  88 SW9       29.82S
CLARION *      MOSUNNY   79  72  78 SW13      29.82F HX  82
ESTHERVILLE    CLOUDY    71  68  90 SW9       29.82R
FORT DODGE *   CLOUDY    77  70  78 SW9       29.83S
MASON CITY     MOSUNNY   80  70  71 S13       29.84S HX  83
FOREST CITY *  MOSUNNY   77  70  78 S9        29.83S
IOWA FALLS *     N/A     81  70  69 S15       29.84S HX  84
$$

IAZ007>011-017>019-026>030-037>042-050>054-066-291800-
   NORTHEAST IOWA

CITY           SKY/WX    TMP DP  RH WIND       PRES   REMARKS
CEDAR RAPIDS   SUNNY     82  72  71 S8        29.86F HX  87
CHARLES CITY * SUNNY     81  72  74 S10       29.84F HX  84
CLINTON *      SUNNY     81  72  74 S13       29.93F HX  84
DECORAH *      MOSUNNY   79  72  78 S9        29.85F HX  82
DUBUQUE        SUNNY     79  71  76 S14       29.90F HX  82
MONTICELLO *   SUNNY     82  73  74 S13       29.88F HX  88
OELWEIN *      SUNNY     81  73  78 S14       29.86F HX  85
WATERLOO       SUNNY     83  70  64 S14       29.82F HX  87
$$

IAZ064-065-067-068-078-291800-
   EAST CENTRAL IOWA

CITY           SKY/WX    TMP DP  RH WIND       PRES   REMARKS
DAVENPORT      SUNNY     82  71  69 S13       29.91F HX  86
IOWA CITY      SUNNY     82  73  74 S9        29.88F HX  87
MT. PLEASANT * SUNNY     84  70  61 S9        29.89F HX  88
MUSCATINE *    SUNNY     84  72  65 S12G17    29.89F HX  89
QUAD CITIES    SUNNY     83  72  69 S12G17    29.90F HX  88
$$

IAZ062-063-075>077-085>089-095>099-291800-
   SOUTHEAST IOWA

CITY           SKY/WX    TMP DP  RH WIND       PRES   REMARKS
BURLINGTON     SUNNY     84  72  67 S10       29.90F HX  89
FAIRFIELD *    SUNNY     84  72  65 S13       29.88F HX  89
FORT MADISON * SUNNY     84  73  70 S7        29.91F HX  91
KEOKUK *       MOSUNNY   84  73  70 S7        29.90F HX  91
OSKALOOSA *      N/A     82  72  69 S10       29.87S HX  87
CENTERVILLE *  SUNNY     82  73  74 S8        29.88F HX  88
OTTUMWA        SUNNY     83  70  64 S9        29.85F HX  87
WASHINGTON *   SUNNY     84  75  74 S10       29.88F HX  92
$$

ABBREVIATIONS USED IN REMARKS
   TC - TEMPERATURES IN CELSIUS
  WCI - WIND CHILL INDEX
   HX - HEAT INDEX
  VSB - VISIBILITY
$$



USA.gov is the U.S. government's official web portal to all federal, state and local government web resources and services.